Powrót do katalogu

DELTA 1 DEB

LostUNKNOWN
NORAD 28666·DEBRIS·🇺🇸 United States

Wystrzelony Jul 4, 1968 z Vandenberg Space Force Base

Loading…

Następne Przeloty (najbliższe 24 godziny)

TLE

NieaktualneSource: Space-Track

Epoka: Oct 6, 2022, 06:38 UTC

1 28666U 68055P   22279.27667598  .00004481  00000-0  78876-2 0  9999
2 28666 120.5489 111.3467 1861514 136.2366 240.2079 10.70536169676725

Śledź DELTA 1 DEB w czasie rzeczywistym z AllMySat

Download on the App Store